Wisconsin Rapids, WI

3:45 AM CST on January 17, 2018 (GMT -0600)
Alexander Field South Wood County

Weather History for KISW - January, 2013

Change the Weather History Date:

Thursday, January 17, 2013

  Actual Average Record
Temperature  
Mean Temperature 14 °F -  
Max Temperature 19 °F 22 °F 48 °F (1986)
Min Temperature 6 °F 3 °F -38 °F (1982)
Degree Days  
Heating Degree Days 52    
Moisture  
Dew Point 1 °F    
Average Humidity 59    
Maximum Humidity 83    
Minimum Humidity 43    
Precipitation  
Precipitation 0.00 in - - ()
Sea Level Pressure  
Sea Level Pressure 30.36 in    
Wind  
Wind Speed 7 mph (WNW)    
Max Wind Speed 12 mph    
Max Gust Speed 16 mph    
Visibility 10 miles    
Events      
Averages and records for this station are not official NWS values.
T = Trace of Precipitation, MM = Missing Value Source: NWS Daily Summary

Daily Weather History Graph

Daily Weather History Graph

Search for Another Location

Airport or City:

Trip Planner

Search our weather history database for the weather conditions in past years. The results will help you decide how hot, cold, wet, or windy it might be!

Date:

Astronomy

Jan. 17, 2013 Rise Set
Actual Time 7:30 AM CST 4:48 PM CST
Civil Twilight 6:58 AM CST 5:21 PM CST
Nautical Twilight 6:22 AM CST 5:56 PM CST
Astronomical Twilight 5:48 AM CST 6:31 PM CST
Moon 10:20 AM CST 11:58 PM CST
Length of Visible Light 10h 22m
Length of Day
9h 18m
Waxing Crescent, 38% of the Moon is Illuminated
Jan 17
Waxing Crescent
Jan 18
First Quarter
Jan 26
Full
Feb 3
Last Quarter
Feb 10
New

Hourly Weather History & Observations

Time (CST) Temp. Windchill Dew Point Humidity Pressure Visibility Wind Dir Wind Speed Gust Speed Precip Events Conditions
12:54 AM 16.0 °F 5.3 °F 3.0 °F 57% 30.18 in 10.0 mi NW 8.1 mph - N/A   Clear
2:54 AM 15.1 °F 5.2 °F 1.9 °F 56% 30.25 in 10.0 mi NNW 6.9 mph - N/A   Overcast
3:54 AM 14.0 °F 5.1 °F 1.0 °F 56% 30.25 in 10.0 mi NNW 5.8 mph - N/A   Partly Cloudy
4:54 AM 12.0 °F -1.3 °F -0.0 °F 59% 30.27 in 10.0 mi NNW 10.4 mph 16.1 mph N/A   Clear
5:54 AM 9.0 °F -0.9 °F -0.9 °F 64% 30.31 in 10.0 mi WNW 5.8 mph - N/A   Clear
6:54 AM 8.1 °F -0.5 °F -0.9 °F 67% 30.33 in 10.0 mi West 4.6 mph - N/A   Clear
7:54 AM 8.1 °F -2.0 °F -2.0 °F 64% 30.35 in 10.0 mi NW 5.8 mph - N/A   Clear
8:54 AM 10.9 °F -3.4 °F -5.1 °F 49% 30.38 in 10.0 mi WNW 11.5 mph - N/A   Scattered Clouds
9:54 AM 12.9 °F -0.2 °F -5.1 °F 45% 30.40 in 10.0 mi WNW 10.4 mph - N/A   Mostly Cloudy
10:54 AM 15.1 °F 6.4 °F -4.0 °F 43% 30.39 in 10.0 mi WNW 5.8 mph - N/A   Overcast
11:54 AM 16.0 °F 3.6 °F -2.0 °F 45% 30.38 in 10.0 mi WSW 10.4 mph - N/A   Overcast
12:54 PM 18.0 °F 6.9 °F -0.9 °F 44% 30.37 in 10.0 mi West 9.2 mph - N/A   Overcast
1:54 PM 19.0 °F 6.8 °F -0.0 °F 43% 30.36 in 10.0 mi NW 11.5 mph - N/A   Mostly Cloudy
2:54 PM 19.0 °F 7.5 °F 1.0 °F 46% 30.35 in 10.0 mi West 10.4 mph - N/A   Overcast
3:54 PM 18.0 °F 5.4 °F 3.0 °F 52% 30.36 in 10.0 mi WNW 11.5 mph - N/A   Overcast
4:54 PM 16.0 °F 5.3 °F 3.0 °F 57% 30.38 in 10.0 mi WNW 8.1 mph - N/A   Partly Cloudy
5:54 PM 14.0 °F 3.9 °F 3.9 °F 64% 30.39 in 10.0 mi NW 6.9 mph - N/A   Clear
6:54 PM 12.0 °F 2.7 °F 3.0 °F 67% 30.41 in 10.0 mi WNW 5.8 mph - N/A   Clear
7:54 PM 10.9 °F 1.4 °F 3.9 °F 73% 30.43 in 10.0 mi West 5.8 mph - N/A   Clear
8:54 PM 10.9 °F 2.9 °F 3.9 °F 73% 30.43 in 10.0 mi WNW 4.6 mph - N/A   Clear
9:54 PM 10.0 °F 3.6 °F 3.9 °F 76% 30.41 in 10.0 mi West 3.5 mph - N/A   Clear
10:54 PM 8.1 °F - 3.0 °F 80% 30.42 in 10.0 mi Calm Calm - N/A   Clear
11:54 PM 6.1 °F - 1.9 °F 83% 30.41 in 10.0 mi Calm Calm - N/A   Clear